STARLINK-31686 (59579 NORAD) Tracking and Keplerian Element Data

This shows tracking and keplerian element data for the satellite.

Feedback or suggestion? Click here.




ElementValue
Catalog59579
NameSTARLINK-31686
Epoch Orbit830
Epoch Day160.10590834
Epoch Year2024
RAAN54.1849
Inclination43.0002
Eccentricity0.0001475
Argument of Perigee269.432
Mean Anonmoly90.6367
Mean Motion15.40718904
Decay Rate0.00016392
L11 59579U 24076R 24160.10590834 .00016392 00000+0 39857-3 0 9992
L22 59579 43.0002 54.1849 0001475 269.4320 90.6367 15.40718904 8301



Live tracking and technical data element details for STARLINK-31686 (NORAD 59579). STARLINK-31686 can be tracked NOW for your location showing map with azimuth and elevation plus other details from your city location.







IsCatalogInMostPopularTable: catalog: 59579, numindb: 12
Update: records affected: 1



GetName: 59579 STARLINK-31686

Hit Count: updated at: Fri, 14 Jun 2024 19:22:47 GMT